Weather History for KBAD - July, 2013

Change the Weather History Date:

Wednesday, July 24, 2013

  Actual Average Record
Temperature  
Mean Temperature 82 °F -  
Max Temperature 92 °F 90 °F 102 °F (2011)
Min Temperature 72 °F 71 °F 62 °F (2000)
Cooling Degree Days 16    
Growing Degree Days 32 (Base 50)    
Moisture  
Dew Point 70 °F    
Average Humidity 72    
Maximum Humidity 95    
Minimum Humidity 45    
Precipitation  
Precipitation 0.00 in - - ()
Sea Level Pressure  
Sea Level Pressure 29.93 in    
Wind  
Wind Speed 6 mph (North)    
Max Wind Speed 16 mph    
Max Gust Speed 24 mph    
Visibility 10 miles    
Events Thunderstorm    
Averages and records for this station are not official NWS values.
T = Trace of Precipitation, MM = Missing Value Source: NWS Daily Summary

Daily Weather History Graph

Daily Weather History Graph

Search for Another Location

Airport or City:

Trip Planner

Search our weather history database for the weather conditions in past years. The results will help you decide how hot, cold, wet, or windy it might be!

Date:

Astronomy

Jul. 24, 2013 Rise Set
Actual Time 6:23 AM CDT 8:18 PM CDT
Civil Twilight 5:56 AM CDT 8:45 PM CDT
Nautical Twilight 5:23 AM CDT 9:18 PM CDT
Astronomical Twilight 4:48 AM CDT 9:53 PM CDT
Moon 9:37 PM CDT (7/24) 8:33 AM CDT (7/24)
Length of Visible Light 14h 48m
Length of Day
13h 54m
Waning Gibbous, 94% of the Moon is Illuminated
Jul 24
Waning Gibbous
Jul 29
Last Quarter
Aug 6
New
Aug 14
First Quarter
Aug 20
Full

Hourly Weather History & Observations

Time (CDT) Temp. Heat Index Dew Point Humidity Pressure Visibility Wind Dir Wind Speed Gust Speed Precip Events Conditions
12:58 AM 72.7 °F - 70.3 °F 92% 29.91 in 10.0 mi SSE 4.6 mph - N/A   Scattered Clouds
1:58 AM 74.3 °F - 70.0 °F 86% 29.91 in 10.0 mi South 6.9 mph - N/A   Clear
2:58 AM 74.5 °F - 69.1 °F 83% 29.89 in 10.0 mi South 8.1 mph - N/A   Clear
3:58 AM 72.7 °F - 69.3 °F 89% 29.91 in 10.0 mi SE 3.5 mph - N/A   Partly Cloudy
4:58 AM 73.2 °F - 70.3 °F 91% 29.94 in 10.0 mi ENE 4.6 mph - N/A   Clear
5:58 AM 72.7 °F - 71.2 °F 95% 29.98 in 10.0 mi Calm Calm - N/A   Partly Cloudy
6:38 AM 73.4 °F - 71.6 °F 94% 29.98 in 10.0 mi NNW 1.2 mph - N/A   Mostly Cloudy
6:58 AM 73.4 °F - 71.6 °F 94% 29.98 in 10.0 mi Calm Calm - N/A   Overcast
7:58 AM 74.3 °F - 71.6 °F 91% 29.96 in 10.0 mi NNW 3.5 mph - N/A   Overcast
8:08 AM 75.2 °F - 71.6 °F 89% 29.95 in 10.0 mi West 3.5 mph - N/A   Mostly Cloudy
8:28 AM 75.2 °F - 69.8 °F 83% 29.94 in 10.0 mi SW 5.8 mph - N/A   Mostly Cloudy
8:58 AM 77.4 °F - 71.2 °F 81% 29.95 in 10.0 mi SW 10.4 mph - N/A   Mostly Cloudy
9:58 AM 81.7 °F 86.0 °F 71.4 °F 71% 29.91 in 10.0 mi SSW 11.5 mph - N/A   Clear
10:58 AM 84.7 °F 90.4 °F 71.6 °F 65% 29.91 in 10.0 mi WSW 16.1 mph 24.2 mph N/A   Clear
11:58 AM 88.0 °F 94.7 °F 71.8 °F 59% 29.93 in 10.0 mi WSW 11.5 mph - N/A   Scattered Clouds
12:58 PM 89.8 °F 96.5 °F 71.4 °F 55% 29.94 in 10.0 mi West 9.2 mph - N/A   Partly Cloudy
1:58 PM 89.1 °F 96.0 °F 72.1 °F 57% 29.93 in 10.0 mi NNE 8.1 mph - N/A   Mostly Cloudy
2:47 PM 91.4 °F 98.4 °F 71.6 °F 52% 29.90 in 10.0 mi NNE 8.1 mph - N/A Thunderstorm Thunderstorm
2:58 PM 90.1 °F 96.3 °F 70.7 °F 53% 29.91 in 10.0 mi North 4.6 mph - N/A Thunderstorm Thunderstorm
3:03 PM 89.6 °F 96.2 °F 71.6 °F 55% 29.90 in 10.0 mi North 4.6 mph - N/A Thunderstorm Mostly Cloudy
3:58 PM 87.4 °F 92.3 °F 70.2 °F 56% 29.92 in 10.0 mi North 6.9 mph - N/A   Overcast
4:58 PM 88.9 °F 92.6 °F 68.0 °F 50% 29.91 in 10.0 mi North 5.8 mph - N/A   Mostly Cloudy
5:58 PM 90.5 °F 93.3 °F 66.6 °F 45% 29.91 in 10.0 mi North 10.4 mph - N/A   Partly Cloudy
6:58 PM 88.5 °F 91.2 °F 66.4 °F 48% 29.93 in 10.0 mi NNE 8.1 mph - N/A   Clear
7:58 PM 85.3 °F 88.2 °F 67.6 °F 55% 29.94 in 10.0 mi NNE 3.5 mph - N/A   Clear
8:58 PM 80.4 °F 83.4 °F 68.9 °F 68% 29.95 in 10.0 mi ENE 2.3 mph - N/A   Clear
9:58 PM 77.2 °F - 69.3 °F 76% 29.96 in 10.0 mi ENE 2.3 mph - N/A   Clear
10:58 PM 76.1 °F - 69.3 °F 79% 29.96 in 10.0 mi East 1.2 mph - N/A   Clear
11:58 PM 74.7 °F - 69.3 °F 83% 29.98 in 10.0 mi Calm Calm - N/A   Clear